Location: Unspecified
(0.0000°N, 0.0000°E)
Time: 20:24:27
(UTC+00:00)

deb OV3-4 - Pass Details

Date: 19 April 2026
Orbit: 581 x 4210 km, 40.6° (Epoch: 13 May)

Event Time Altitude Azimuth Distance (km) Brightness Sun altitude
Rises 18:56:14 0° 308° (NW) 6,989 ? -14.0°
Reaches altitude 10° 19:01:45 10° 305° (NW) 5,392 ? -15.3°
Maximum altitude 19:15:15 61° 228° (SW) 1,708 ? -18.7°
Enters shadow 19:20:59 16° 151° (SSE) 2,496 ? -20.1°
